Regional Weather Roundup
Issued by NWS

Home | Current Version | Previous Version | Text Only | Print | Product List | Glossary On
Versions: 1 2 3 4 5 6 7 8 9 10 11 12 13 14 15 16 17 18 19 20 21 22 23 24 25 26 27 28 29 30 31 32 33 34 35 36 37 38 39 40 41 42 43 44 45 46 47 48 49 50
000
ASUS43 KMKX 031621
RWRWI

WISCONSIN REGIONAL WEATHER ROUNDUP
NATIONAL WEATHER SERVICE MILWAUKEE/SULLIVAN WI
1100 AM CDT FRI JUL 03 2015

NOTE: "FAIR" INDICATES FEW OR NO CLOUDS BELOW 12,000 FEET WITH NO
SIGNIFICANT WEATHER AND/OR OBSTRUCTIONS TO VISIBILITY.

WIZ001-002-006>008-014>016-023>028-031700-
NORTHWEST WISCONSIN

CITY           SKY/WX    TMP DP  RH WIND       PRES   REMARKS
SUPERIOR ARPT  SUNNY     72  62  69 W7        29.88S
ASHLAND        PTSUNNY   71  57  61 W9G17     29.89F
HAYWARD        MOSUNNY   70  53  54 SW12      29.93F
SIREN          MOSUNNY   72  55  54 SW9       29.93F
CUMBERLAND     PTSUNNY   70  54  56 W8        29.96S
RICE LAKE      PTSUNNY   71  53  53 W8        29.97F
CHETEK         PTSUNNY   71  58  64 CALM      29.96S
LADYSMITH      MOSUNNY   71  55  58 W6        29.98S
EAU CLAIRE     MOSUNNY   71  57  61 W7        29.96S
MENOMONIE      MOSUNNY   73  56  54 SW8       29.97S
NEW RICHMOND   MOSUNNY   71  56  58 W8        29.97S
OSCEOLA        MOSUNNY   72  57  60 SW7       29.98S
$$

WIZ003>005-009-010-017-018-031700-
NORTH CENTRAL WISCONSIN

CITY           SKY/WX    TMP DP  RH WIND       PRES   REMARKS
MANITOWISH WTR PTSUNNY   66  55  66 W12G17    29.93F
ARBOR VITAE    MOSUNNY   72  58  60 W12G17    29.94F
WOODRUFF       MOSUNNY   72  58  60 W12G17    29.94F
RHINELANDER    SUNNY     70  56  61 SW9       29.97F
EAGLE RIVER    MOSUNNY   70  54  56 SW12      29.94F
LAND O LAKES   PTSUNNY   70  55  58 W10       29.94F
PHILLIPS       MOSUNNY   69  56  65 SW8       29.95F
TOMAHAWK       MOSUNNY   69  55  60 W8        29.97S
MEDFORD        SUNNY     69  56  64 W7        29.98S
MERRILL        MOSUNNY   69  57  65 W8        29.97F
$$

WIZ029-030-035-036-043>047-031700-
CENTRAL WISCONSIN

CITY           SKY/WX    TMP DP  RH WIND       PRES   REMARKS
WAUSAU         MOSUNNY   70  55  59 SW7       29.96F
MOSINEE        SUNNY     66  57  72 SW6       29.99F
MARSHFIELD     SUNNY     69  56  62 VRB7      29.98F
STEVENS POINT  SUNNY     67  51  55 W5        29.99S
WAUPACA        SUNNY     72  53  50 SW6       29.99S
WAUTOMA        SUNNY     71  53  52 SW6       29.99F
WISC RAPIDS    SUNNY     70  53  54 SW7       30.00S
CAMP DOUGLAS   SUNNY     71  60  70 W6        29.98F
$$

WIZ011>013-019>022-031-037>040-048>050-031700-
NORTHEAST WISCONSIN

CITY           SKY/WX    TMP DP  RH WIND       PRES   REMARKS
ANTIGO         SUNNY     67  55  66 W7        29.98F
SHAWANO        SUNNY     71  49  45 W6        29.98S
OCONTO         SUNNY     70  55  59 W8        29.97S
STURGEON BAY   SUNNY     70  54  56 SW10      29.99F
GREEN BAY      SUNNY     70  55  59 SW6       29.98F
MANITOWOC      SUNNY     71  54  54 MISG      29.99S
APPLETON       SUNNY     68  52  56 SW9       29.99F
CLINTONVILLE   SUNNY     70  48  46 W7        29.98S
OSHKOSH        SUNNY     70  52  52 VRB6      29.99S
$$

WIZ032>034-041-042-053>061-031700-
SOUTHWEST WISCONSIN

CITY           SKY/WX    TMP DP  RH WIND       PRES   REMARKS
LA CROSSE      SUNNY     71  58  63 S5        29.98S
SPARTA         SUNNY     72  53  51 W5        29.99S
VIROQUA        SUNNY     69  53  57 W5        30.01S
BOSCOBEL       SUNNY     71  56  58 CALM      30.00F
PRAIRIE DU CHI SUNNY     69  52  55 CALM      30.00S
PLATTEVILLE    SUNNY     69  52  55 CALM      30.01S
$$

WIZ056-057-062-063-064-067-068-031700-
SOUTH CENTRAL WISCONSIN

CITY           SKY/WX    TMP DP  RH WIND       PRES   REMARKS
REEDSBURG      SUNNY     69  56  65 S3        29.99F
BARABOO/DELLS  SUNNY     68  52  55 W5        30.00S
LONE ROCK      SUNNY     67  54  63 CALM      30.01S
MINERAL POINT  SUNNY     70  50  49 N5        30.01S
MADISON        MOSUNNY   69  53  56 CALM      30.00S
MIDDLETON      SUNNY     71  53  53 NW3       30.01S
WATERTOWN      SUNNY     69  56  63 SW5       29.99F
MONROE         SUNNY     68  55  64 CALM      30.00S
JANESVILLE     SUNNY     70  55  60 CALM      29.98F
$$

WIZ051-052-058>065-066-070>072-031700-
SOUTHEAST WISCONSIN

CITY           SKY/WX    TMP DP  RH WIND       PRES   REMARKS
MILWAUKEE      PTSUNNY   68  55  63 VRB3      30.00S
WAUKESHA       SUNNY     70  52  52 CALM      30.00S
MILWAUKEE/TIMM SUNNY     72  48  43 CALM      30.00S
RACINE         MOSUNNY   67  54  63 E5        30.01F
BURLINGTON     MOSUNNY   69  53  55 CALM      29.99S
KENOSHA        MOSUNNY   70  56  61 E3        29.99F
FOND DU LAC    SUNNY     70  54  56 SW7       30.00S
SHEBOYGAN      SUNNY     71  54  54 W6        29.99S
WEST BEND      SUNNY     70  50  49 CALM      30.00S
JUNEAU         SUNNY     68  55  64 SW6       30.01F
$$

LSZ147-162-031700-
LAKE SUPERIOR

STATION/POSITION TIME  TEMP    WIND        PRES    WAVE
                       AIR SEA DIR/SP/G            HT/PER
                 (UTC) (F)     (DEG/KT/KT) (MB)    (FT/S)
W MID LAKE BUOY  1550   47 38  220/ 12/ 12 1010.7S   2/ 4
DEVILS ISLAND    1600   63     240/ 18/ 20 1011.0S
SAXON HARBOR     1500   67     200/  6/ 12 1011.9
$$

LMZ867-665-643>646-031700-
LAKE MICHIGAN

STATION/POSITION TIME  TEMP    WIND        PRES    WAVE
                       AIR SEA DIR/SP/G            HT/PER
                 (UTC) (F)     (DEG/KT/KT) (MB)    (FT/S)
CHAMBERS ISLAND  1500   65     200/  5/ 10 1014.9S
S GREEN BAY BUOY 1500   65 68  220/ 14/ 16 1016.4F
N MID LAKE BUOY  1550   49 44  200/ 10/ 12 1014.6F   1
NORTHPORT PIER   1500   66     260/  4/ 12 1014.6S
SISTER BAY       1544   69     270/ 10/ 11   N/A
ALGOMA LAKESHORE 1510          190/ 10/ 11   N/A
KEWAUNEE LAKESHO 1500   61     170/  7/  8 1014.8F
SHEBOYGAN LAKESH 1600   59     140/  8/  8 1015.9F
PORT WASHINGTON  1500   63     100/  2/  3 1016.6S
ATWATER BUOY     1600   59 60  110/  4/  6 1017.2R
MILWAUKEE LAKESH 1600   61      70/  4/  5   N/A
KENOSHA   LAKESH 1600   60      50/  4/  5 1015.6F
$$

TC  - TEMPERATURE IN CELSIUS
VSB - VISIBILITY IN STATUTE MILES
WCI - WIND CHILL INDEX
HX  - HEAT INDEX



USA.gov is the U.S. government's official web portal to all federal, state and local government web resources and services.